Regional Weather Roundup
Issued by NWS

Home | Current Version | Previous Version | Text Only | Print | Product List | Glossary Off
Versions: 1 2 3 4 5 6 7 8 9 10 11 12 13 14 15 16 17 18 19 20 21 22 23 24 25 26 27 28 29 30 31 32 33 34 35 36 37 38 39 40 41 42 43 44 45 46 47 48 49 50

000
ASUS45 KTFX 210304
RWRMT
MONTANA HOURLY WEATHER ROUNDUP
NATIONAL WEATHER SERVICE GREAT FALLS MT
904 PM MDT SUN APR 20 2014

NOTE: "FAIR" INDICATES FEW OR NO CLOUDS BELOW 12000 FEET WITH NO
SIGNIFICANT WEATHER AND/OR OBSTRUCTIONS TO VISIBILITY.

* THESE STATIONS ARE NOT UNDER NWS QUALITY CONTROL. THEY DO NOT
   REPORT WEATHER SUCH AS PRECIPITATION OR FOG.

MTZ001>007-043-210400-
WEST OF THE DIVIDE
CITY           SKY/WX    TMP DP  RH WIND       PRES   REMARKS
KALISPELL      CLOUDY    48  25  41 SW3       30.20S
MISSOULA       PTCLDY    48  21  34 N8        30.23R
BUTTE          PTCLDY    46  12  25 NW8       30.22R
MULLAN PASS    CLOUDY    36  21  54 SW5       30.23S WCI  32
* ESSEX        N/A       38  30  73 N/A        N/A
* LINCOLN      N/A       48  16  28 W4G15      N/A
* LOOKOUT PASS N/A       39  26  60 VRB1       N/A
* POLSON       N/A       45  20  37 S1         N/A
* SEELEY LAKE  N/A       48  18  30 NW2G11     N/A
* THOMP F APT  CLOUDY    50  15  25 SE4G18     N/A
$$

MTZ008-052>055-210400-
SOUTHWEST MONTANA
CITY           SKY/WX    TMP DP  RH WIND       PRES   REMARKS
BOZEMAN        MOCLDY    46  21  37 N8        30.19R
DILLON         MOCLDY    48  14  25 E8        30.18R
W YELLOWSTONE  N/A       42  27  55 SW2G9      N/A
* THREE FORKS  MOCLDY    55  14  20 NW13       N/A
* BOULDER HILL N/A       41  12  30 N/A        N/A
* MONIDA PASS  N/A       43  16  34 W6         N/A
* RAYNOLDS PAS N/A       41  40  96 VRB1       N/A
* WHITEHALL    N/A       53   8  16 NW7G16     N/A
* WISE RIVER   N/A       46  13  26 W8G17      N/A
$$

MTZ009>010-012-014-046-048-049-054-210400-
EAST SLOPES AND CENTRAL MONTANA
CITY           SKY/WX    TMP DP  RH WIND       PRES   REMARKS
CUT BANK       PTCLDY    45  23  42 W15       30.15R
GREAT FALLS    PTCLDY    43  18  37 W7        30.17R
HELENA         PTCLDY    54  16  22 W13       30.18R
MALMSTROM AFB  PTCLDY    52  16  24 W5        30.15R
* CONRAD       CLEAR     43  21  42 N/A        N/A
* DEARBORN     N/A       52  14  22 S5         N/A
* EAST GLACIER N/A       42  20  41 NW8G15     N/A
* MONARCH      N/A       40   7  25 W8         N/A   WCI  35
* PENDROY      N/A       42  17  36 NW8        N/A
* ROGERS PASS  N/A       43  11  27 E11G16     N/A
* SAINT MARY   N/A       43  20  40 S6G16      N/A
* SWEET GRASS  N/A       46  20  36 S11        N/A
$$

MTZ011-013-016-021-035-040-045-047-050-051-210400-
NORTH CENTRAL MONTANA
CITY           SKY/WX    TMP DP  RH WIND       PRES   REMARKS
HAVRE          FAIR      46  21  37 W9        30.11R
LEWISTOWN      CLEAR     37  18  46 W7        30.17R WCI  32
* CHESTER      N/A       53  20  27 W12G19     N/A
* DENTON       N/A       43  13  29 W5         N/A
* GEYSER       N/A       40  12  32 W7         N/A   WCI  35
* JUDITH GAP   N/A       42  17  36 NW11       N/A
* LOMA         N/A       54  20  26 W9         N/A
$$

MTZ017>020-022>027-061-062-210400-
NORTHEAST MONTANA
CITY           SKY/WX    TMP DP  RH WIND       PRES   REMARKS
GLASGOW        CLEAR     50  25  38 W8        30.07R
GLENDIVE       CLEAR     54  25  33 NW12      30.09R
JORDAN         CLEAR     46  23  40 NW8       30.10R
SIDNEY         CLEAR     45  27  49 W7        30.06R
WOLF POINT     CLEAR     52  25  35 W10       30.05R
* BEAVER HILL  N/A       50  23  35 W9         N/A
* CIRCLE       N/A       55  29  37 NW7        N/A
* LINDSAY DVD  N/A       49  25  39 W10        N/A
* NAVAJO       N/A       48  30  50 NW14       N/A
* SACO         N/A       47  24  40 W8         N/A
$$

MTZ028>042-056>058-210400-
SOUTHCENTRAL AND SOUTHEAST MONTANA
CITY           SKY/WX    TMP DP  RH WIND       PRES   REMARKS
BAKER          CLEAR     45  21  38 W9        30.09R
BILLINGS       MOCLDY    54  12  19 N9        30.15R
LIVINGSTON     PTCLDY    52  18  26 NW20      30.16R
MILES CITY     CLEAR     52  21  30 NW8       30.10R
* LAUREL APT   CLEAR     50  16  26 NW5        N/A
* ROUNDUP APT  PTCLDY    52  12  20 NW5        N/A
* HYSHAM       N/A       53  13  20 N/A        N/A
* LAME DEER    N/A       49  17  28 VRB8       N/A
* REED POINT   N/A       55  17  22 E4         N/A
* ROSCOE HILL  N/A       50   8  18 N7G14      N/A
$$

REGIONAL REPORTS...DAKOTAS
CITY           SKY/WX    TMP DP  RH WIND       PRES   REMARKS
WILLISTON      CLEAR     48  28  46 W9        30.00R
DICKINSON      CLEAR     46  21  37 W8        30.03R
CROSBY         CLEAR     46  32  58 W15       29.98R
TIOGA          CLEAR     46  28  50 W8        30.01R
WATFORD CITY   CLEAR     48  28  46 W7        30.00R
BISMARCK       PTCLDY    59  25  27 NW8       29.99R
GRAND FORKS    CLOUDY    61  34  36 NW14      29.87R
FARGO          PTCLDY    64  36  35 S15       29.86F
RAPID CITY     CLEAR     52  30  43 N12       30.07R
$$

REGIONAL REPORTS...WYOMING/IDAHO/WASHINGTON
CITY           SKY/WX    TMP DP  RH WIND       PRES   REMARKS
GILLETTE       CLEAR     46  23  40 NW10      30.15R
SHERIDAN       CLEAR     46  27  48 W13       30.16R
CODY           CLEAR     52  19  27 W5        30.17R
YELLOWSTONE LA PTCLDY    32  25  75 CALM      30.28R
SALMON         PTCLDY    48  21  34 E5        30.18R
MULLAN PASS    CLOUDY    36  21  54 SW5       30.23S WCI  32
SPOKANE        PTCLDY    54  28  37 CALM      30.19F

$$




USA.gov is the U.S. government's official web portal to all federal, state and local government web resources and services.